{"data":{"norad_id":60739,"epoch":"2026-05-24T18:01:16.316256Z","epoch_age_seconds":96156,"freshness":"FRESH","line1":"1 60739U 24152V   26144.75088329 -.00002396  00000+0 -68803-4 0  9998","line2":"2 60739  53.1612 275.3097 0001172  95.9389 264.1746 15.30197053 98441","mean_motion":15.30197053,"eccentricity":0.0001172,"inclination_deg":53.1612,"raan_deg":275.3097,"arg_perigee_deg":95.9389,"mean_anomaly_deg":264.1746,"bstar":-6.8803e-5,"rev_number":9844,"period_min":94.105526943529,"perigee_km":474.42065475044,"apogee_km":476.02708253805,"semimajor_km":6853.3608686442,"source":"CELESTRAK","updated_at":"2026-05-25T13:38:19.311273Z"}}